[[{"header":{"parameterUnit":"m.s-1","parameterCategory":1,"la1":30.2991,"la2":30.254,"lo1":-89.0895,"lo2":-89.0444,"dy":0.0017,"dx":0.0017,"nx":28,"ny":28,"refTime":"2024-05-13T21:00:00:Z","depth":0,"parameterNumber":2,"parameterNumberName":"U-component_of_WINDS"},"data":[0,0,0,0,0,0,0,0,0,0,0,0,0,0,0,0,0,0,0,0,0,0,0,0,0,0,0,0,0,0,0,0,0,0,0,0,0,0,0,0,0,0,0,0,0,0,0,0,0,0,0,0,0,0,0,0,0,0,-3.7609,-3.7608,0,-3.7473,-3.7471,-3.747,-3.7248,-3.7244,-3.724,-3.7236,-3.7101,-3.7101,-3.7101,0,0,0,0,0,0,0,0,0,0,0,0,0,-3.7682,-3.7682,-3.7609,-3.7608,-3.7606,-3.7473,-3.7471,-3.7469,-3.7249,-3.7244,-3.7239,-3.7234,-3.7101,-3.7101,-3.7101,0,0,0,0,0,0,0,0,0,0,0,0,0,-3.7609,-3.7682,-3.761,-3.748,-3.7467,-3.7473,-3.7471,-3.7469,-3.725,-3.7244,-3.7237,-3.7232,-3.7101,-3.7101,-3.7101,-3.7225,0,0,-3.7102,-3.7102,0,0,0,0,0,0,0,0,-3.7614,-3.7607,-3.75,-3.7489,-3.7474,-3.7371,-3.7447,-3.7387,-3.7251,-3.7332,-3.7236,-3.7229,-3.7196,-3.7188,-3.7176,-3.7219,-3.7213,-3.7102,-3.7102,-3.7102,-3.7102,0,0,0,0,0,0,0,-3.7619,-3.7611,-3.7555,-3.7499,-3.7483,-3.7429,-3.7412,-3.7435,-3.73,-3.7325,-3.7308,-3.7295,-3.7187,-3.7176,-3.7171,-3.7211,-3.7102,-3.7102,-3.7102,-3.7102,-3.7348,-3.7354,0,0,0,0,0,0,-3.7643,-3.7617,-3.756,-3.7551,-3.753,-3.7433,-3.7414,-3.741,-3.7299,-3.7276,-3.73,-3.7285,-3.7179,-3.7171,-3.7165,-3.7302,-3.7102,-3.7102,-3.7103,-3.7342,-3.7349,-3.7356,0,0,0,0,0,0,-3.7645,-3.764,-3.7565,-3.758,-3.7566,-3.7438,-3.7436,-3.7411,-3.7399,-3.7281,-3.7256,-3.7313,-3.7173,-3.7165,-3.7211,-3.7295,-3.7103,-3.7103,-3.7334,-3.7344,-3.7353,-3.7579,0,0,0,0,0,0,-3.7648,-3.7642,-3.7687,-3.7582,-3.7566,-3.7613,-3.7441,-3.7413,-3.74,-3.7379,-3.7286,-3.7265,-3.7168,-3.7212,-3.7212,-3.7292,-3.7103,-3.7326,-3.7338,-3.735,-3.7563,-3.7595,-3.7622,0,0,0,0,0,-3.7651,-3.7757,-3.769,-3.7684,-3.7619,-3.7618,-3.7609,-3.7494,-3.7407,-3.7452,-3.7376,-3.7268,-3.7286,-3.7219,-3.7216,-3.7298,-3.732,-3.7335,-3.7349,-3.755,-3.7589,-3.7621,0,0,0,0,0,0,-3.7876,-3.7741,-3.7665,-3.774,-3.7692,-3.7581,-3.7633,-3.7539,-3.7515,-3.7497,-3.7356,-3.7337,-3.7402,-3.7354,-3.7282,-3.7411,-3.7286,-3.7301,-3.744,-3.7476,-3.7505,-3.7515,-3.7103,0,0,0,0,0,-3.7934,-3.7943,-3.7825,-3.7902,-3.7882,-3.7763,-3.7758,-3.7673,-3.7619,-3.7598,-3.7525,-3.7477,-3.7471,-3.7471,-3.7459,-3.7555,-3.7532,-3.761,-3.7639,-3.7664,-3.7678,-3.7725,-3.7758,-3.7403,-3.7403,-3.7403,0,0,-3.8054,-3.7981,-3.7996,-3.7945,-3.7898,-3.7912,-3.7747,-3.7768,-3.7777,-3.7601,-3.764,-3.7585,-3.7523,-3.7595,-3.7622,-3.7557,-3.7771,-3.7682,-3.7703,-3.7703,-3.7743,-3.7777,-3.7807,-3.7413,-3.7411,-3.7409,0,0,-3.828,-3.8226,-3.8284,-3.824,-3.817,-3.809,-3.8105,-3.8008,-3.7964,-3.8,-3.7868,-3.7878,-3.7871,-3.7832,-3.7811,-3.8023,-3.7923,-3.8023,-3.8176,-3.8224,-3.8252,-3.8276,-3.8351,-3.838,-3.8038,-3.8038,-3.8039,0,-3.8439,-3.8452,-3.8326,-3.8355,-3.8337,-3.8177,-3.8235,-3.8199,-3.8131,-3.8123,-3.805,-3.8038,-3.7985,-3.8045,-3.8096,-3.8085,-3.8097,-3.8033,-3.8258,-3.828,-3.8301,-3.8371,-3.84,-3.8051,-3.805,-3.8048,-3.8047,0,-3.8651,-3.8663,-3.8718,-3.8654,-3.8642,-3.8686,-3.8568,-3.8571,-3.8488,-3.8416,-3.8456,-3.8386,-3.8358,-3.8366,-3.8285,-3.8415,-3.8376,-3.8283,-3.8154,-3.835,-3.8413,-3.8439,-3.8069,-3.8065,-3.8061,-3.8058,0,0,-3.9014,-3.8879,-3.8901,-3.887,-3.8782,-3.8789,-3.8827,-3.8797,-3.8803,-3.8761,-3.8789,-3.8788,-3.87,-3.8677,-3.8591,-3.8633,-3.8805,-3.8534,-3.853,-3.8586,-3.8943,-3.9014,-3.9047,-3.8738,-3.8743,-3.8746,-3.8948,0,-3.9221,-3.9275,-3.9163,-3.9245,-3.9254,-3.9103,-3.9135,-3.9085,-3.902,-3.9019,-3.8946,-3.8947,-3.8832,-3.8817,-3.8852,-3.8777,-3.8874,-3.8761,-3.8763,-3.8765,-3.8784,-3.908,-3.9155,-3.9349,-3.8972,-3.8976,-3.8979,0,-3.947,-3.9439,-3.9522,-3.9428,-3.9428,-3.9459,-3.9423,-3.9424,-3.9365,-3.9314,-3.9289,-3.9187,-3.9218,-3.9095,-3.9136,-3.9061,-3.9055,-3.9019,-3.9024,-3.902,-3.8884,-3.9084,-3.9408,-3.9437,-3.9017,-3.9014,-3.9012,0,-3.9726,-3.9706,-3.9752,-3.973,-3.9623,-3.9648,-3.9605,-3.9539,-3.9529,-3.9498,-3.949,-3.9464,-3.945,-3.9433,-3.9327,-3.9247,-3.9382,-3.9249,-3.9341,-3.9344,-3.9375,-3.9375,-3.9703,-3.9373,-3.9373,-3.9372,-3.9372,0,-3.9969,-4.0026,-3.9866,-3.9895,-3.9954,-3.9825,-3.9887,-3.9829,-3.9772,-3.9788,-3.9655,-3.9673,-3.9533,-3.9536,-3.9454,-3.95,-3.9495,-3.9455,-3.9433,-3.9467,-3.9472,-3.9461,-3.9445,-3.938,-3.9378,-3.9377,-3.9376,0,-4.0265,-4.016,-4.0201,-4.0095,-4.007,-4.0119,-4.0028,-4.0051,-3.9977,-3.9998,-3.9996,-3.988,-3.9876,-3.9769,-3.9744,-3.9688,-3.9769,-3.9722,-3.9789,-3.9774,-3.9871,-3.9864,-4.0204,-4.0242,-3.9889,-3.9893,-3.9896,0,-4.0427,-4.0466,-4.0365,-4.0365,-4.0328,-4.033,-4.0318,-4.0193,-4.0187,-4.0122,-4.0154,-4.0139,-4.012,-4.0122,-4.0036,-4.0016,-3.9967,-4.0088,-3.9963,-3.9996,-3.9969,-3.9968,-3.9971,-4.0114,-4.0119,-4.0122,-4.0125,0,-4.0725,-4.0671,-4.0658,-4.0629,-4.0618,-4.0589,-4.0551,-4.0559,-4.0422,-4.0422,-4.0416,-4.0402,-4.0375,-4.0362,-4.0326,-4.0282,-4.0182,-4.0165,-4.0185,-4.0221,-4.0258,-4.0239,-3.9861,-4.0158,-4.0155,-4.0152,-4.0151,-4.0149,-4.0958,-4.0986,-4.0919,-4.091,-4.0868,-4.0836,-4.0852,-4.078,-4.0772,-4.0739,-4.0666,-4.0673,-4.0612,-4.0553,-4.0518,-4.0522,-4.0461,-4.049,-4.0497,-4.0506,-4.0525,-4.0258,-4.0515,-4.0514,-4.0513,-4.0512,-4.0511,0,-4.1249,-4.1198,-4.1191,-4.1142,-4.1135,-4.104,-4.0993,-4.0994,-4.1001,-4.0952,-4.0937,-4.093,-4.0918,-4.0831,-4.0808,-4.0828,-4.0782,-4.0826,-4.0824,-4.0815,-4.0581,-4.0566,-4.0864,-4.0864,-4.0864,-4.0864,-4.0864,-4.0864,-4.14,-4.1442,-4.1381,-4.1402,-4.135,-4.1354,-4.1336,-4.1306,-4.1267,-4.1265,-4.1253,-4.1196,-4.1133,-4.1105,-4.1089,-4.1064,-4.1062,-4.1123,-4.1083,-4.0866,-4.0832,-4.0799,-4.0784,-4.1123,-4.1124,-4.1316,-4.1318,-4.1319]},{"header":{"parameterUnit":"m.s-1","parameterCategory":1,"la1":30.2991,"la2":30.254,"lo1":-89.0895,"lo2":-89.0444,"dy":0.0017,"dx":0.0017,"nx":28,"ny":28,"refTime":"2024-05-13T21:00:00:Z","depth":0,"parameterNumber":3,"parameterNumberName":"V-component_of_WINDS"},"data":[0,0,0,0,0,0,0,0,0,0,0,0,0,0,0,0,0,0,0,0,0,0,0,0,0,0,0,0,0,0,0,0,0,0,0,0,0,0,0,0,0,0,0,0,0,0,0,0,0,0,0,0,0,0,0,0,0,0,0.2795,0.2796,0,0.296,0.2962,0.2964,0.2986,0.2985,0.2983,0.2982,0.3161,0.3167,0.3173,0,0,0,0,0,0,0,0,0,0,0,0,0,0.2505,0.2511,0.2794,0.2797,0.2799,0.296,0.2962,0.2965,0.2987,0.2985,0.2983,0.2981,0.3159,0.3167,0.3174,0,0,0,0,0,0,0,0,0,0,0,0,0,0.2647,0.2512,0.2794,0.2829,0.2834,0.296,0.2962,0.2965,0.2987,0.2985,0.2982,0.298,0.3157,0.3166,0.3175,0.3281,0,0,0.3204,0.3208,0,0,0,0,0,0,0,0,0.2639,0.2658,0.2822,0.2827,0.2832,0.295,0.2926,0.3071,0.2988,0.2929,0.2982,0.2979,0.3094,0.3108,0.3145,0.3289,0.3297,0.3205,0.321,0.3214,0.3217,0,0,0,0,0,0,0,0.2629,0.2651,0.286,0.2824,0.2831,0.2839,0.2856,0.2954,0.3023,0.2934,0.2936,0.2955,0.3096,0.3135,0.3149,0.33,0.3204,0.3213,0.3218,0.3222,0.3539,0.3542,0,0,0,0,0,0,0.2612,0.2643,0.2855,0.2865,0.2728,0.2846,0.2866,0.2915,0.3022,0.3036,0.2957,0.2955,0.3121,0.3138,0.3155,0.3287,0.3214,0.3223,0.3228,0.3537,0.354,0.3543,0,0,0,0,0,0,0.2606,0.2631,0.2848,0.2755,0.2783,0.2853,0.2909,0.2919,0.2959,0.3039,0.3052,0.2984,0.3119,0.3142,0.3249,0.3293,0.3227,0.3236,0.3533,0.3538,0.3542,0.355,0,0,0,0,0,0,0.2597,0.2628,0.2667,0.2755,0.2788,0.2937,0.2911,0.2924,0.2974,0.2973,0.3068,0.3081,0.3119,0.3235,0.3258,0.3305,0.3243,0.353,0.3535,0.354,0.3546,0.3554,0.356,0,0,0,0,0,0.2587,0.2665,0.2669,0.2695,0.2838,0.2939,0.2958,0.2997,0.2977,0.3018,0.307,0.3078,0.3284,0.3245,0.3272,0.3322,0.3527,0.3534,0.354,0.3543,0.3552,0.356,0,0,0,0,0,0,0.2585,0.2678,0.2683,0.2792,0.2857,0.2943,0.2996,0.3006,0.3082,0.3079,0.3127,0.3148,0.3253,0.3298,0.3253,0.343,0.3404,0.3416,0.3397,0.3407,0.3414,0.3402,0.3251,0,0,0,0,0,0.2597,0.2668,0.2746,0.2835,0.2867,0.2925,0.2971,0.2995,0.3066,0.3095,0.3154,0.3226,0.3306,0.3359,0.3437,0.3551,0.3574,0.3599,0.3606,0.3612,0.3623,0.3687,0.37,0.3564,0.3564,0.3564,0,0,0.2623,0.2682,0.2725,0.2836,0.2889,0.2965,0.2949,0.303,0.3088,0.3109,0.3212,0.3258,0.3341,0.3451,0.3503,0.3493,0.3665,0.362,0.3624,0.3632,0.3695,0.3708,0.3719,0.3568,0.3567,0.3567,0,0,0.271,0.2761,0.284,0.2892,0.2972,0.301,0.3029,0.3112,0.3143,0.3246,0.3263,0.3334,0.3471,0.3529,0.3577,0.3682,0.3694,0.3707,0.3746,0.3808,0.3819,0.3829,0.3868,0.3881,0.3717,0.3717,0.3717,0,0.2734,0.2845,0.288,0.296,0.3009,0.3026,0.3108,0.3159,0.3262,0.3296,0.3281,0.3453,0.3511,0.3635,0.366,0.3698,0.3723,0.3698,0.3814,0.3824,0.3834,0.3872,0.3886,0.3718,0.3718,0.3718,0.3717,0,0.2871,0.2948,0.3003,0.3097,0.3152,0.3233,0.3282,0.3334,0.3352,0.3392,0.3498,0.3566,0.3659,0.369,0.3711,0.3818,0.3809,0.3803,0.3779,0.3847,0.3884,0.3899,0.3719,0.3719,0.3719,0.3718,0,0,0.2965,0.3074,0.3094,0.3136,0.3224,0.3286,0.3368,0.3454,0.3499,0.3568,0.364,0.3754,0.3749,0.3803,0.383,0.3884,0.3965,0.3872,0.3875,0.3889,0.4089,0.4094,0.411,0.3971,0.3974,0.3977,0.4083,0,0.3063,0.3205,0.3238,0.3362,0.3434,0.3451,0.3522,0.3585,0.3624,0.3694,0.3738,0.3819,0.3805,0.3838,0.3892,0.3943,0.4006,0.3936,0.4042,0.4045,0.4022,0.4129,0.4135,0.4232,0.4097,0.41,0.4101,0,0.3197,0.3265,0.3395,0.3471,0.3503,0.3566,0.3648,0.3713,0.3785,0.381,0.3868,0.3889,0.3978,0.3946,0.4069,0.4021,0.4066,0.4097,0.4102,0.4116,0.4079,0.4148,0.4264,0.4279,0.4124,0.4122,0.4121,0,0.3254,0.3378,0.3472,0.3508,0.3599,0.3643,0.3684,0.3753,0.3803,0.3875,0.3909,0.3991,0.4038,0.4102,0.4146,0.4118,0.4267,0.4238,0.4293,0.4292,0.4326,0.4323,0.4453,0.435,0.435,0.435,0.435,0,0.3361,0.3441,0.3498,0.3556,0.3646,0.3683,0.3772,0.3813,0.3874,0.3943,0.3963,0.4027,0.4079,0.4152,0.4186,0.4284,0.4305,0.433,0.4338,0.4329,0.4326,0.4361,0.4357,0.4354,0.4353,0.4352,0.4351,0,0.3442,0.3483,0.3586,0.3662,0.3683,0.3746,0.3814,0.3872,0.3909,0.3996,0.4018,0.408,0.4166,0.4214,0.4324,0.4347,0.4457,0.4461,0.4431,0.4436,0.4488,0.4483,0.4647,0.4671,0.455,0.4551,0.4552,0,0.3509,0.3569,0.3651,0.3695,0.3736,0.3809,0.3858,0.3897,0.3949,0.4034,0.4083,0.4168,0.424,0.4377,0.4433,0.4517,0.4525,0.4576,0.4539,0.4527,0.4529,0.4525,0.4532,0.4584,0.4585,0.4586,0.4587,0,0.3624,0.364,0.3709,0.3784,0.3842,0.3904,0.3967,0.4004,0.4053,0.411,0.4196,0.4251,0.436,0.4446,0.4534,0.458,0.4593,0.4598,0.4615,0.4608,0.4589,0.4601,0.4452,0.4595,0.4594,0.4593,0.4593,0.4593,0.3701,0.3755,0.382,0.3896,0.3946,0.4003,0.4061,0.4104,0.4175,0.4264,0.4284,0.4375,0.4446,0.4564,0.4612,0.4685,0.4677,0.4702,0.4708,0.4714,0.4717,0.4574,0.4702,0.4701,0.4701,0.4701,0.4701,0,0.3818,0.3859,0.3928,0.4013,0.4073,0.4074,0.4143,0.4194,0.4272,0.4335,0.4403,0.4503,0.4586,0.4647,0.4733,0.478,0.4789,0.4802,0.48,0.4811,0.4719,0.4696,0.4794,0.4794,0.4794,0.4794,0.4794,0.4794,0.3886,0.3978,0.4002,0.412,0.4162,0.4248,0.4287,0.4341,0.4391,0.4499,0.4566,0.4604,0.4668,0.4758,0.4835,0.4851,0.4883,0.4896,0.4913,0.4827,0.4817,0.4808,0.4787,0.4902,0.4902,0.4999,0.5,0.5001]}]]